| time (UTC) | temp F | wind direction | speed MPH | gust MPH | rain 1hr in | rain 24hr in | rain mn in | humidity % | barometer mb |
| 20260506044615 | 55 | 262 | 16.0 | 23.0 | 0.00 | 0.19 | 0.00 | 88 | 1003.6 |
| 20260506043048 | 55 | 255 | 13.0 | 22.0 | 0.00 | 0.19 | 0.00 | 90 | 1003.4 |
| 20260506041545 | 55 | 264 | 12.0 | 21.0 | 0.00 | 0.19 | 0.00 | 92 | 1003.5 |
| 20260506040045 | 55 | 229 | 8.0 | 16.0 | 0.00 | 0.19 | 0.00 | 92 | 1003.1 |
| 20260506034542 | 54 | 281 | 6.0 | 16.0 | 0.00 | 0.19 | 0.19 | 92 | 1002.8 |
| 20260506033042 | 54 | 237 | 7.0 | 16.0 | 0.00 | 0.19 | 0.19 | 91 | 1002.5 |
| 20260506031541 | 54 | 244 | 9.0 | 16.0 | 0.00 | 0.19 | 0.19 | 90 | 1002.2 |
| 20260506030038 | 54 | 248 | 11.0 | 19.0 | 0.00 | 0.19 | 0.19 | 89 | 1002.0 |
| 20260506024539 | 55 | 246 | 15.0 | 26.0 | 0.01 | 0.19 | 0.19 | 89 | 1001.9 |
| 20260506023051 | 55 | 226 | 12.0 | 27.0 | 0.01 | 0.19 | 0.19 | 90 | 1002.2 |
| 20260506021537 | 56 | 264 | 13.0 | 26.0 | 0.01 | 0.19 | 0.19 | 91 | 1002.1 |
| 20260506020036 | 56 | 255 | 12.0 | 21.0 | 0.01 | 0.19 | 0.19 | 91 | 1002.0 |
| 20260506014538 | 56 | 248 | 13.0 | 25.0 | 0.00 | 0.18 | 0.18 | 92 | 1001.6 |
| 20260506013036 | 56 | 229 | 9.0 | 17.0 | 0.00 | 0.18 | 0.18 | 94 | 1001.4 |
| 20260506011536 | 56 | 248 | 9.0 | 15.0 | 0.00 | 0.18 | 0.18 | 94 | 1001.4 |
| 20260506010046 | 56 | 240 | 11.0 | 17.0 | 0.00 | 0.18 | 0.18 | 93 | 1001.3 |
| 20260506004534 | 57 | 245 | 12.0 | 22.0 | 0.00 | 0.18 | 0.18 | 93 | 1001.1 |
| 20260506003034 | 57 | 230 | 16.0 | 24.0 | 0.00 | 0.18 | 0.18 | 93 | 1000.6 |
| 20260506001542 | 57 | 255 | 11.0 | 22.0 | 0.01 | 0.18 | 0.18 | 93 | 1000.4 |
| 20260506000033 | 57 | 246 | 11.0 | 20.0 | 0.02 | 0.18 | 0.18 | 94 | 1000.0 |
| 20260505234554 | 57 | 246 | 12.0 | 21.0 | 0.02 | 0.18 | 0.18 | 94 | 999.6 |
| 20260505233037 | 57 | 240 | 12.0 | 20.0 | 0.02 | 0.18 | 0.18 | 95 | 999.6 |
| 20260505231534 | 58 | 232 | 10.0 | 18.0 | 0.01 | 0.17 | 0.17 | 95 | 999.5 |
| 20260505230031 | 58 | 244 | 10.0 | 16.0 | 0.05 | 0.17 | 0.17 | 95 | 998.8 |
| 20260505224534 | 58 | 248 | 7.0 | 15.0 | 0.06 | 0.17 | 0.17 | 94 | 999.1 |
| 20260505223030 | 58 | 232 | 10.0 | 16.0 | 0.06 | 0.17 | 0.17 | 93 | 999.1 |
| 20260505221529 | 58 | 269 | 10.0 | 17.0 | 0.06 | 0.17 | 0.17 | 91 | 999.1 |
| 20260505220028 | 60 | 312 | 19.0 | 46.0 | 0.02 | 0.12 | 0.12 | 83 | 998.2 |
| 20260505214555 | 67 | 255 | 15.0 | 27.0 | 0.00 | 0.10 | 0.10 | 69 | 996.7 |
| 20260505213027 | 67 | 239 | 18.0 | 34.0 | 0.00 | 0.10 | 0.10 | 69 | 997.1 |
| 20260505211529 | 67 | 262 | 16.0 | 30.0 | 0.00 | 0.10 | 0.10 | 72 | 996.7 |
| 20260505210025 | 67 | 250 | 21.0 | 33.0 | 0.00 | 0.10 | 0.10 | 72 | 996.3 |
| 20260505204525 | 68 | 272 | 18.0 | 39.0 | 0.00 | 0.10 | 0.10 | 70 | 996.0 |
| 20260505203034 | 67 | 252 | 16.0 | 36.0 | 0.00 | 0.10 | 0.10 | 72 | 996.0 |
| 20260505201528 | 67 | 218 | 17.0 | 36.0 | 0.00 | 0.10 | 0.10 | 73 | 995.9 |
| 20260505200020 | 67 | 285 | 15.0 | 33.0 | 0.00 | 0.10 | 0.10 | 76 | 996.4 |
| 20260505194520 | 66 | 235 | 14.0 | 27.0 | 0.00 | 0.10 | 0.10 | 81 | 996.7 |
| 20260505193017 | 63 | 258 | 10.0 | 29.0 | 0.01 | 0.10 | 0.10 | 86 | 997.3 |
| 20260505191517 | 62 | 244 | 15.0 | 27.0 | 0.02 | 0.10 | 0.10 | 91 | 997.4 |
| 20260505190014 | 60 | 231 | 9.0 | 26.0 | 0.06 | 0.10 | 0.10 | 94 | 997.7 |
| 20260505184514 | 58 | 242 | 11.0 | 21.0 | 0.07 | 0.10 | 0.10 | 94 | 998.0 |
| 20260505183017 | 57 | 211 | 6.0 | 14.0 | 0.07 | 0.09 | 0.09 | 93 | 998.4 |
| 20260505181514 | 58 | 257 | 10.0 | 18.0 | 0.08 | 0.08 | 0.08 | 90 | 998.7 |
| 20260505180017 | 60 | 269 | 10.0 | 14.0 | 0.04 | 0.04 | 0.04 | 87 | 998.5 |
| 20260505174518 | 61 | 235 | 7.0 | 15.0 | 0.03 | 0.03 | 0.03 | 85 | 998.1 |
| 20260505173017 | 63 | 296 | 18.0 | 29.0 | 0.02 | 0.02 | 0.02 | 74 | 998.6 |
| 20260505171516 | 67 | 277 | 11.0 | 30.0 | 0.00 | 0.00 | 0.00 | 64 | 998.0 |
| 20260505170010 | 68 | 215 | 14.0 | 31.0 | 0.00 | 0.00 | 0.00 | 63 | 997.8 |
| 20260505164508 | 67 | 240 | 18.0 | 29.0 | 0.00 | 0.00 | 0.00 | 61 | 998.4 |
| 20260505163006 | 70 | 231 | 16.0 | 32.0 | 0.00 | 0.00 | 0.00 | 57 | 998.5 |
| 20260505161502 | 67 | 215 | 19.0 | 36.0 | 0.00 | 0.00 | 0.00 | 59 | 999.0 |
| 20260505153106 | 69 | 245 | 14.0 | 28.0 | 0.00 | 0.00 | 0.00 | 53 | 999.1 |
| 20260505151602 | 68 | 276 | 23.0 | 35.0 | 0.00 | 0.00 | 0.00 | 55 | 999.0 |
| 20260505124534 | 58 | 288 | 5.0 | 10.0 | 0.00 | 0.00 | 0.00 | 69 | 1000.4 |
| 20260505123023 | 57 | 284 | 5.0 | 10.0 | 0.00 | 0.00 | 0.00 | 69 | 1000.5 |
| 20260505121519 | 57 | 298 | 4.0 | 8.0 | 0.00 | 0.00 | 0.00 | 70 | 1000.5 |
| 20260505120017 | 56 | 269 | 8.0 | 13.0 | 0.00 | 0.00 | 0.00 | 72 | 1000.7 |
| 20260505114510 | 54 | 295 | 3.0 | 8.0 | 0.00 | 0.00 | 0.00 | 80 | 1000.7 |
| 20260505113006 | 51 | 82 | 3.0 | 5.0 | 0.00 | 0.00 | 0.00 | 92 | 1000.6 |
| 20260505111503 | 47 | 200 | 2.0 | 5.0 | 0.00 | 0.00 | 0.00 | 95 | 1000.8 |
| 20260505101555 | 40 | 104 | 3.0 | 7.0 | 0.00 | 0.00 | 0.00 | 96 | 1001.4 |
| 20260505100054 | 39 | 113 | 3.0 | 8.0 | 0.00 | 0.00 | 0.00 | 95 | 1001.5 |
| 20260505094549 | 39 | 125 | 4.0 | 8.0 | 0.00 | 0.00 | 0.00 | 95 | 1001.4 |
| 20260505093048 | 39 | 87 | 4.0 | 8.0 | 0.00 | 0.00 | 0.00 | 94 | 1001.4 |
| 20260505091605 | 39 | 101 | 5.0 | 7.0 | 0.00 | 0.00 | 0.00 | 94 | 1001.5 |
| 20260505090045 | 39 | 91 | 5.0 | 7.0 | 0.00 | 0.00 | 0.00 | 94 | 1001.7 |
| 20260505084540 | 39 | 82 | 4.0 | 8.0 | 0.00 | 0.00 | 0.00 | 93 | 1001.8 |
| 20260505083039 | 40 | 87 | 4.0 | 7.0 | 0.00 | 0.00 | 0.00 | 93 | 1001.8 |
| 20260505081539 | 40 | 98 | 4.0 | 6.0 | 0.00 | 0.00 | 0.00 | 92 | 1001.8 |
| 20260505080034 | 41 | 102 | 6.0 | 9.0 | 0.00 | 0.00 | 0.00 | 91 | 1001.8 |
| 20260505074530 | 42 | 127 | 8.0 | 10.0 | 0.00 | 0.00 | 0.00 | 91 | 1001.9 |
| 20260505073031 | 42 | 116 | 7.0 | 10.0 | 0.00 | 0.00 | 0.00 | 90 | 1001.7 |
| 20260505071524 | 44 | 122 | 4.0 | 9.0 | 0.00 | 0.00 | 0.00 | 89 | 1002.1 |
| 20260505070022 | 45 | 125 | 6.0 | 8.0 | 0.00 | 0.00 | 0.00 | 87 | 1002.3 |
| 20260505064520 | 46 | 138 | 6.0 | 11.0 | 0.00 | 0.00 | 0.00 | 87 | 1002.5 |
| 20260505063018 | 44 | 123 | 7.0 | 10.0 | 0.00 | 0.00 | 0.00 | 90 | 1002.8 |
| 20260505061515 | 43 | 138 | 5.0 | 8.0 | 0.00 | 0.00 | 0.00 | 89 | 1003.0 |
| 20260505060014 | 43 | 109 | 5.0 | 7.0 | 0.00 | 0.00 | 0.00 | 89 | 1003.1 |
| 20260505054512 | 43 | 163 | 4.0 | 7.0 | 0.00 | 0.00 | 0.00 | 88 | 1003.5 |
| 20260505053011 | 43 | 119 | 2.0 | 5.0 | 0.00 | 0.00 | 0.00 | 87 | 1003.5 |
| 20260505051530 | 43 | 120 | 3.0 | 8.0 | 0.00 | 0.00 | 0.00 | 86 | 1003.5 |